スコッティ彗星

C/2010 F3 ( Scotti )

English version
Home page
Updated on September 3, 2011

---------------------------------------------------------------------

・ プロフィール

発見日 2010年3月20日
発見光度 19.8等
発見者 J. V. Scotti (Spacewatch)

・ 写真集

・ 軌道要素

Epoch 2010 July 23.0 TT = JDT 2455400.5
T 2010 Aug. 4.52706 TT                                  MPC
q   5.4467019            (2000.0)            P               Q
z  +0.0159247      Peri.   31.25579     -0.98792912     +0.15174737
 +/-0.0000000      Node   157.40982     -0.15351288     -0.93218023
e   0.9132628      Incl.    4.64761     -0.02073305     -0.32865295
From 119 observations 2010 Mar. 20-2011 May 24, mean residual 0".4.

・ 光度変化

        m1 = 9.0 + 5 logΔ + 10.0 log r

---------------------------------------------------------------------

軌道要素はM.P.E.C. 2011-L11に掲載されたものです。
光度グラフはComet for Windowsで作成したものです。

---------------------------------------------------------------------

Copyright(C) Seiichi Yoshida (comet@aerith.net). All rights reserved.